Regional Weather Roundup
Issued by NWS

Home | Current Version | Previous Version | Graphics & Text | Print | Product List | Glossary On
Versions: 1 2 3 4 5 6 7 8 9 10 11 12 13 14 15 16 17 18 19 20 21 22 23 24 25 26 27 28 29 30 31 32 33 34 35 36 37 38 39 40 41 42 43 44 45 46 47 48 49 50
000
ASUS43 KTOP 231708
RWRKS

WEATHER ROUNDUP FOR KANSAS
NATIONAL WEATHER SERVICE GOODLAND KS
1100 AM CST TUE JAN 23 2018

NOTE:  "FAIR" INDICATES FEW OR NO CLOUDS BELOW 12,000 FEET WITH NO
SIGNIFICANT WEATHER AND/OR OBSTRUCTIONS TO VISIBILITY.

KSZ001>006-013>018-027>032-041>047-231800-
NORTHWEST KANSAS

CITY           SKY/WX    TMP DP  RH WIND       PRES   REMARKS
GOODLAND       SUNNY     26  18  71 W15       30.24R WCI  14
HAYS           FAIR      33  20  58 NW13      30.25R WCI  24
HILL CITY      FAIR      34  23  64 W8        30.24R
RUSSELL        FAIR      33  23  66 NW10      30.23R WCI  25
$$

KSZ061>065-074>080-084>089-231800-
SOUTHWEST KANSAS

CITY           SKY/WX    TMP DP  RH WIND       PRES   REMARKS
DODGE CITY     FAIR      43  18  36 N15       30.25R
ELKHART        PTSUNNY   41  18  39 NW6       30.29R
GARDEN CITY    FAIR      39  19  44 N17       30.26R WCI  30
GREAT BEND     FAIR      35  20  54 NW9       30.25R
LIBERAL        FAIR      41  15  35 NW13      30.29R
PRATT          FAIR      38  18  44 NW12      30.26R WCI  30
$$

KSZ066>073-081>083-090>101-231800-
SOUTHEAST KANSAS

CITY           SKY/WX    TMP DP  RH WIND       PRES   REMARKS
COFFEYVILLE    FAIR      34  23  64 N8        30.26R
HUTCHINSON     FAIR      35  22  58 W8        30.25R
MEDICINE LODGE   N/A     40  19  43 N12       30.26R WCI  33
NEWTON         FAIR      33  22  63 NW10      30.24R WCI  25
PARSONS        CLOUDY    30  25  81 NW7       30.27R
WICHITA INTL   FAIR      36  22  56 NW9       30.25R
WICHITA JABRA  FAIR      35  22  58 NW8       30.25R
WICHITA MCCONL FAIR      35  20  53 N8        30.25R
WINFIELD       FAIR      37  22  54 NW9       30.27R
$$

KSZ007>012-019>026-033>040-048>060-102>105-231800-
NORTHEAST KANSAS

CITY           SKY/WX    TMP DP  RH WIND       PRES   REMARKS
CONCORDIA      FAIR      29  22  75 W12       30.23R WCI  19
EMPORIA        FAIR      28  22  78 NW6       30.23R
LAWRENCE       CLOUDY    29  23  78 NW7       30.22R
MANHATTAN      CLOUDY    26  21  81 W5        30.24R
MARYSVILLE     CLOUDY    27  23  86 NW3       30.20S
OLATHE IND     CLOUDY    29  25  85 NW7       30.21R
OLATHE EXE     CLOUDY    27  24  89 NW8       30.19R
SALINA         FAIR      35  22  58 NW10      30.26R WCI  27
TOPEKA BILLARD PTSUNNY   27  22  81 W6        30.23R
TOPEKA FORBES  CLOUDY    28  23  81 NW6       30.22R
$$




USA.gov is the U.S. government's official web portal to all federal, state and local government web resources and services.